Location: Cabeza de los Veneras
(40.2000°N, 5.2000°W)
Time: 03:17:39
(UTC+00:00)

Cosmos 1697 Rocket - Pass Details

Date: 18 April 2024
Orbit: 832 x 843 km, 71.0° (Epoch: 25 May)

Event Time Altitude Azimuth Distance (km) Brightness Sun altitude
Exits shadow 20:18:45 14° 82° (E) 2,203 4.4 -14.2°
Drops below altitude 10° 20:20:28 10° 65° (ENE) 2,465 4.8 -14.5°
Sets 20:24:00 0° 43° (NE) 3,406 5.7 -15.1°
